| time (UTC) | temp F | wind direction | speed knots | gust knots | rain 1hr in | rain 24hr in | rain mn in | humidity % | barometer mb |
| 20260506163027 | 63 | 46 | 0.9 | 7.0 | 0.00 | 0.00 | 0.00 | 47 | 1013.3 |
| 20260506161536 | 63 | 55 | 0.9 | 4.3 | 0.00 | 0.00 | 0.00 | 46 | 1013.3 |
| 20260506160026 | 63 | 338 | 2.6 | 7.0 | 0.00 | 0.00 | 0.00 | 46 | 1013.3 |
| 20260506154529 | 63 | 44 | 0.9 | 5.2 | 0.00 | 0.00 | 0.00 | 46 | 1013.4 |
| 20260506153026 | 65 | 17 | 4.3 | 9.6 | 0.00 | 0.00 | 0.00 | 44 | 1013.4 |
| 20260506151522 | 63 | 38 | 0.9 | 7.8 | 0.00 | 0.00 | 0.00 | 48 | 1013.5 |
| 20260506150030 | 63 | 71 | 1.7 | 8.7 | 0.00 | 0.00 | 0.00 | 47 | 1013.6 |
| 20260506144529 | 64 | 30 | 1.7 | 6.1 | 0.00 | 0.00 | 0.00 | 46 | 1013.7 |
| 20260506143029 | 62 | 24 | 0.0 | 4.3 | 0.00 | 0.00 | 0.00 | 49 | 1013.7 |
| 20260506141528 | 63 | 28 | 0.0 | 7.0 | 0.00 | 0.00 | 0.00 | 44 | 1013.8 |
| 20260506140026 | 63 | 108 | 0.9 | 6.1 | 0.00 | 0.00 | 0.00 | 46 | 1013.8 |
| 20260506134520 | 61 | 360 | 1.7 | 7.8 | 0.00 | 0.00 | 0.00 | 52 | 1013.8 |
| 20260506133015 | 61 | 86 | 0.9 | 8.7 | 0.00 | 0.00 | 0.00 | 52 | 1014.0 |
| 20260506131525 | 63 | 347 | 1.7 | 8.7 | 0.00 | 0.00 | 0.00 | 49 | 1013.9 |
| 20260506130024 | 62 | 29 | 0.0 | 7.0 | 0.00 | 0.00 | 0.00 | 50 | 1014.0 |
| 20260506124526 | 61 | 31 | 0.9 | 5.2 | 0.00 | 0.00 | 0.00 | 52 | 1014.0 |
| 20260506123014 | 60 | 78 | 2.6 | 6.1 | 0.00 | 0.00 | 0.00 | 53 | 1014.0 |
| 20260506121518 | 61 | 346 | 4.3 | 8.7 | 0.00 | 0.00 | 0.00 | 51 | 1014.1 |
| 20260506120024 | 61 | 350 | 1.7 | 7.0 | 0.00 | 0.00 | 0.00 | 54 | 1014.1 |
| 20260506114534 | 60 | 47 | 0.9 | 9.6 | 0.00 | 0.00 | 0.00 | 53 | 1014.2 |
| 20260506113010 | 60 | 47 | 1.7 | 8.7 | 0.00 | 0.00 | 0.00 | 50 | 1014.2 |
| 20260506111516 | 60 | 64 | 3.5 | 8.7 | 0.00 | 0.00 | 0.00 | 52 | 1014.3 |
| 20260506110020 | 60 | 26 | 3.5 | 10.4 | 0.00 | 0.00 | 0.00 | 53 | 1014.3 |
| 20260506104523 | 59 | 98 | 2.6 | 9.6 | 0.00 | 0.00 | 0.00 | 57 | 1014.3 |
| 20260506103029 | 58 | 90 | 2.6 | 7.8 | 0.00 | 0.00 | 0.00 | 59 | 1014.2 |
| 20260506101511 | 56 | 5 | 2.6 | 8.7 | 0.00 | 0.00 | 0.00 | 61 | 1014.2 |
| 20260506100030 | 55 | 61 | 2.6 | 9.6 | 0.00 | 0.00 | 0.00 | 63 | 1014.3 |
| 20260506094521 | 54 | 75 | 3.5 | 11.3 | 0.00 | 0.00 | 0.00 | 64 | 1014.5 |
| 20260506093023 | 53 | 104 | 2.6 | 8.7 | 0.00 | 0.00 | 0.00 | 66 | 1014.3 |
| 20260506091526 | 52 | 12 | 3.5 | 8.7 | 0.00 | 0.00 | 0.00 | 67 | 1014.5 |
| 20260506090013 | 52 | 34 | 3.5 | 11.3 | 0.00 | 0.00 | 0.00 | 67 | 1014.4 |
| 20260506084522 | 52 | 20 | 0.9 | 9.6 | 0.00 | 0.00 | 0.00 | 70 | 1014.5 |
| 20260506083023 | 52 | 46 | 1.7 | 10.4 | 0.00 | 0.00 | 0.00 | 70 | 1014.6 |
| 20260506081531 | 50 | 61 | 0.9 | 8.7 | 0.00 | 0.00 | 0.00 | 75 | 1014.4 |
| 20260506073004 | 48 | 66 | 4.3 | 8.7 | 0.00 | 0.00 | 0.00 | 76 | 1014.5 |
| 20260506071508 | 48 | 74 | 1.7 | 8.7 | 0.00 | 0.00 | 0.00 | 78 | 1014.4 |
| 20260506061504 | 47 | 78 | 2.6 | 10.4 | 0.00 | 0.00 | 0.00 | 82 | 1013.9 |
| 20260506044512 | 47 | 76 | 0.0 | 2.6 | 0.00 | 0.00 | 0.00 | 81 | 1013.7 |
| 20260506043014 | 47 | 76 | 0.0 | 8.7 | 0.00 | 0.00 | 0.00 | 81 | 1013.5 |
| 20260506041517 | 48 | 51 | 0.0 | 5.2 | 0.00 | 0.00 | 0.00 | 81 | 1013.5 |
| 20260506040026 | 48 | 72 | 0.9 | 6.1 | 0.00 | 0.00 | 0.00 | 81 | 1013.5 |
| 20260506034508 | 48 | 67 | 0.9 | 7.8 | 0.00 | 0.00 | 0.00 | 82 | 1013.4 |
| 20260506033015 | 49 | 13 | 3.5 | 8.7 | 0.00 | 0.00 | 0.00 | 83 | 1013.5 |
| 20260506031525 | 49 | 47 | 1.7 | 4.3 | 0.00 | 0.00 | 0.00 | 83 | 1013.5 |
| 20260506030019 | 49 | 43 | 0.0 | 2.6 | 0.00 | 0.00 | 0.00 | 83 | 1013.6 |
| 20260506024535 | 49 | 67 | 0.0 | 0.0 | 0.00 | 0.00 | 0.00 | 83 | 1013.6 |
| 20260506023008 | 50 | 67 | 0.0 | 1.7 | 0.00 | 0.00 | 0.00 | 82 | 1013.5 |
| 20260506021514 | 50 | 67 | 0.0 | 6.1 | 0.00 | 0.00 | 0.00 | 82 | 1013.6 |
| 20260506020016 | 50 | 45 | 0.0 | 7.8 | 0.00 | 0.00 | 0.00 | 82 | 1013.5 |
| 20260506014519 | 50 | 40 | 0.0 | 2.6 | 0.00 | 0.00 | 0.00 | 82 | 1013.5 |
| 20260506013029 | 50 | 40 | 0.0 | 1.7 | 0.00 | 0.00 | 0.00 | 81 | 1013.6 |
| 20260506011511 | 50 | 40 | 0.0 | 2.6 | 0.00 | 0.00 | 0.00 | 80 | 1013.7 |
| 20260506010017 | 50 | 40 | 0.0 | 0.0 | 0.00 | 0.00 | 0.00 | 80 | 1013.7 |
| 20260506004516 | 50 | 40 | 0.0 | 0.0 | 0.00 | 0.00 | 0.00 | 79 | 1013.7 |
| 20260506003022 | 50 | 40 | 0.0 | 0.9 | 0.00 | 0.00 | 0.00 | 79 | 1013.9 |
| 20260506001527 | 50 | 40 | 0.0 | 1.7 | 0.00 | 0.00 | 0.00 | 78 | 1013.8 |
| 20260506000011 | 51 | 40 | 0.9 | 7.0 | 0.00 | 0.00 | 0.00 | 78 | 1013.7 |
| 20260505234533 | 51 | 28 | 0.0 | 5.2 | 0.00 | 0.00 | 0.00 | 78 | 1013.7 |
| 20260505233021 | 51 | 61 | 0.9 | 5.2 | 0.00 | 0.00 | 0.00 | 77 | 1013.8 |
| 20260505231526 | 51 | 360 | 0.0 | 4.3 | 0.00 | 0.00 | 0.00 | 77 | 1013.8 |
| 20260505230048 | 51 | 360 | 0.0 | 5.2 | 0.00 | 0.00 | 0.00 | 77 | 1013.9 |
| 20260505224515 | 51 | 360 | 0.0 | 3.5 | 0.00 | 0.00 | 0.00 | 77 | 1013.9 |
| 20260505223023 | 51 | 360 | 0.0 | 0.0 | 0.00 | 0.00 | 0.00 | 76 | 1014.0 |
| 20260505221522 | 51 | 360 | 0.0 | 1.7 | 0.00 | 0.00 | 0.00 | 76 | 1013.9 |
| 20260505220026 | 51 | 360 | 0.0 | 2.6 | 0.00 | 0.00 | 0.00 | 76 | 1013.9 |
| 20260505214529 | 51 | 360 | 0.9 | 2.6 | 0.00 | 0.00 | 0.00 | 76 | 1013.9 |
| 20260505213016 | 51 | 360 | 0.0 | 0.0 | 0.00 | 0.00 | 0.00 | 76 | 1013.9 |
| 20260505211526 | 51 | 360 | 0.0 | 1.7 | 0.00 | 0.00 | 0.00 | 75 | 1013.8 |
| 20260505210029 | 51 | 360 | 0.0 | 3.5 | 0.00 | 0.00 | 0.00 | 75 | 1013.9 |
| 20260505204528 | 51 | 360 | 0.0 | 2.6 | 0.00 | 0.00 | 0.00 | 73 | 1013.9 |
| 20260505203026 | 52 | 360 | 0.0 | 3.5 | 0.00 | 0.00 | 0.00 | 72 | 1013.9 |
| 20260505201515 | 53 | 360 | 0.0 | 3.5 | 0.00 | 0.00 | 0.00 | 71 | 1013.7 |
| 20260505200022 | 53 | 360 | 0.0 | 2.6 | 0.00 | 0.00 | 0.00 | 70 | 1013.6 |
| 20260505194528 | 54 | 360 | 0.9 | 4.3 | 0.00 | 0.00 | 0.00 | 69 | 1013.4 |
| 20260505193027 | 55 | 5 | 1.7 | 6.1 | 0.00 | 0.00 | 0.00 | 67 | 1013.1 |
| 20260505191528 | 56 | 19 | 0.9 | 7.0 | 0.00 | 0.00 | 0.00 | 64 | 1012.9 |
| 20260505190017 | 57 | 36 | 1.7 | 7.8 | 0.00 | 0.00 | 0.00 | 62 | 1012.9 |
| 20260505184525 | 58 | 30 | 2.6 | 7.0 | 0.00 | 0.00 | 0.00 | 62 | 1012.8 |
| 20260505183026 | 59 | 18 | 1.7 | 9.6 | 0.00 | 0.00 | 0.00 | 60 | 1012.9 |
| 20260505181533 | 59 | 340 | 1.7 | 9.6 | 0.00 | 0.00 | 0.00 | 60 | 1012.8 |
| 20260505180039 | 59 | 54 | 1.7 | 10.4 | 0.00 | 0.00 | 0.00 | 60 | 1012.8 |
| 20260505174518 | 59 | 5 | 6.1 | 10.4 | 0.00 | 0.00 | 0.00 | 60 | 1012.8 |
| 20260505173025 | 59 | 346 | 0.9 | 8.7 | 0.00 | 0.00 | 0.00 | 60 | 1012.9 |
| 20260505171527 | 60 | 24 | 3.5 | 8.7 | 0.00 | 0.00 | 0.00 | 59 | 1012.9 |
| 20260505170030 | 61 | 346 | 5.2 | 10.4 | 0.00 | 0.00 | 0.00 | 60 | 1012.9 |
| 20260505164526 | 61 | 327 | 7.0 | 11.3 | 0.00 | 0.00 | 0.00 | 58 | 1012.8 |